IU3VGK Weather Reports


time (UTC)temp
C
wind
direction
speed
KPH
gust
KPH
rain 1hr
cm
rain 24hr
cm
rain mn
cm
humidity
%
barometer
mb
20260507172055 19 16 12.9 12.9 0.00 0.00 0.00 55 1018.6
20260507171042 19 16 12.9 12.9 0.00 0.00 0.00 56 1017.6
20260507170027 20 16 12.9 12.9 0.00 0.00 0.00 60 1017.6
20260507165113 20 16 12.9 12.9 0.00 0.00 0.00 59 1017.6
20260507164059 20 16 12.9 12.9 0.00 0.00 0.00 54 1017.6
20260507163045 20 16 12.9 12.9 0.00 0.00 0.00 53 1018.6
20260507162031 20 16 12.9 12.9 0.00 0.00 0.00 53 1018.6
20260507161017 19 16 12.9 12.9 0.00 0.00 0.00 52 1017.6
20260507160124 19 11 4.8 4.8 0.00 0.00 0.00 51 1017.6
20260507155050 18 16 12.9 12.9 0.00 0.00 0.00 51 1017.6
20260507154036 18 16 12.9 12.9 0.00 0.00 0.00 52 1017.6
20260507153022 18 16 12.9 12.9 0.00 0.00 0.00 54 1018.6
20260507152127 19 16 12.9 12.9 0.00 0.00 0.00 53 1018.6
20260507151051 20 16 12.9 12.9 0.00 0.00 0.00 59 1017.8
20260507150037 20 16 12.9 12.9 0.00 0.00 0.00 59 1017.6
20260507145023 20 16 12.9 12.9 0.00 0.00 0.00 57 1017.6
20260507144110 20 16 12.9 12.9 0.00 0.00 0.00 61 1018.4
20260507143116 20 16 12.9 12.9 0.00 0.00 0.00 60 1018.6
20260507142036 20 16 12.9 12.9 0.00 0.00 0.00 63 1018.6
20260507141022 20 16 12.9 12.9 0.00 0.00 0.00 63 1018.0
20260507140109 20 16 12.9 12.9 0.00 0.00 0.00 61 1017.6
20260507135055 19 16 12.9 12.9 0.00 0.00 0.00 65 1017.6
20260507134041 20 16 12.9 12.9 0.00 0.00 0.00 63 1018.6
20260507133027 20 16 12.9 12.9 0.00 0.00 0.00 61 1019.1
20260507132113 19 16 12.9 12.9 0.00 0.00 0.00 55 1018.6
20260507131118 19 17 11.3 14.5 0.00 0.00 0.00 52 1018.6
20260507130044 20 189 6.4 12.9 0.00 0.03 0.00 50 1018.6
20260507125030 20 189 6.4 9.7 0.00 0.05 0.00 51 1018.6
20260507124017 20 189 6.4 6.4 0.00 0.05 0.00 50 1018.8
20260507123104 18 189 6.4 6.4 0.00 0.10 0.00 52 1019.6
20260507122049 20 189 6.4 11.3 0.00 0.13 0.00 54 1019.6
20260507121035 22 189 6.4 6.4 0.00 0.20 0.00 59 1019.6
20260507120022 22 189 6.4 12.9 0.00 0.46 0.00 60 1018.6
20260507115108 22 189 6.4 9.7 0.00 0.61 0.00 61 1018.6
20260507114053 22 151 3.2 12.9 0.00 0.64 0.00 60 1018.6
20260507113039 22 151 3.2 11.3 0.00 0.66 0.00 59 1018.6
20260507112025 22 151 3.2 3.2 0.00 0.66 0.00 60 1018.6
20260507111152 22 151 3.2 9.7 0.00 0.66 0.00 61 1018.6
20260507110057 21 151 3.2 9.7 0.00 0.66 0.00 63 1018.6
20260507105044 22 151 3.2 6.4 0.00 0.66 0.00 61 1018.6
20260507104029 22 151 3.2 6.4 0.00 0.69 0.00 60 1018.6
20260507103117 21 151 3.2 3.2 0.00 0.69 0.00 65 1018.6
20260507102103 21 151 3.2 3.2 0.00 0.69 0.00 61 1017.6
20260507101048 21 151 3.2 6.4 0.00 0.69 0.00 61 1018.6
20260507100034 21 151 3.2 6.4 0.00 0.69 0.00 62 1018.6
20260507095020 21 151 3.2 3.2 0.00 0.69 0.00 62 1018.6
20260507094107 20 151 3.2 3.2 0.00 0.69 0.00 65 1017.6
20260507093132 20 151 3.2 9.7 0.00 0.69 0.00 65 1018.6
20260507092038 20 151 3.2 3.2 0.00 0.69 0.00 69 1019.6
20260507091024 19 151 3.2 3.2 0.00 0.69 0.00 71 1018.6
20260507090112 19 151 3.2 9.7 0.00 0.69 0.00 72 1018.6
20260507085058 18 151 3.2 3.2 0.00 0.69 0.00 72 1018.6
20260507084044 17 151 3.2 3.2 0.00 0.69 0.00 70 1018.6
20260507083030 17 151 3.2 6.4 0.00 0.69 0.00 72 1019.6
20260507082116 17 151 3.2 3.2 0.00 0.69 0.00 72 1019.6
20260507081102 16 151 3.2 3.2 0.00 0.69 0.00 78 1018.8
20260507080048 16 151 3.2 3.2 0.00 0.69 0.00 76 1018.6
20260507075034 16 151 3.2 3.2 0.00 0.69 0.00 77 1018.6
20260507074019 16 151 3.2 3.2 0.00 0.69 0.00 75 1019.5
20260507073106 15 151 3.2 3.2 0.00 0.69 0.00 75 1018.8
20260507072050 15 151 3.2 3.2 0.00 0.69 0.00 75 1018.6
20260507071034 13 152 3.2 3.2 0.00 0.69 0.00 75 1018.6
20260507070119 13 152 3.2 3.2 0.00 0.69 0.00 76 1018.6
20260507065059 16 153 3.2 3.2 0.00 0.69 0.00 73 1018.6
20260507064044 14 157 1.6 3.2 0.00 0.71 0.00 70 1018.6
20260507063027 12 315 0.0 0.0 0.00 0.76 0.00 70 1017.6
20260507062110 12 315 0.0 0.0 0.00 0.79 0.00 70 1016.6
20260507061055 12 315 0.0 0.0 0.00 0.89 0.00 70 1017.0
20260507060035 12 332 1.6 4.8 0.00 0.97 0.00 77 1018.0
20260507055020 12 333 4.8 4.8 0.00 1.27 0.00 84 1018.6
20260507054104 11 333 4.8 4.8 0.00 1.68 0.00 85 1018.6
20260507053046 11 333 4.8 4.8 0.00 1.88 0.00 87 1016.6
20260507052032 11 333 4.8 4.8 0.00 1.93 0.00 84 1018.6
20260507051114 11 333 4.8 4.8 0.00 1.98 0.00 76 1018.6
20260507050117 11 333 4.8 4.8 0.00 2.01 0.00 80 1017.6
20260507045040 11 333 4.8 4.8 0.00 2.06 0.00 81 1017.6
20260507044021 11 333 4.8 4.8 0.00 2.16 0.00 85 1017.6
20260507043109 11 333 4.8 4.8 0.00 2.18 0.00 80 1015.6
20260507042050 10 333 4.8 4.8 0.00 2.18 0.00 82 1015.6
20260507041033 10 333 4.8 4.8 0.00 2.21 0.00 87 1017.6
20260507040119 11 333 4.8 4.8 0.00 2.21 0.00 83 1017.6
20260507035058 11 333 4.8 4.8 0.00 2.26 0.00 89 1016.6
20260507034044 11 333 4.8 4.8 0.00 2.26 0.00 87 1016.6
20260507033026 11 333 4.8 4.8 0.00 2.26 0.00 81 1015.6
20260507032110 11 333 4.8 4.8 0.00 2.26 0.00 81 1015.6
20260507031055 11 333 4.8 4.8 0.00 2.26 0.00 81 1017.6
20260507030052 11 333 4.8 4.8 0.00 2.26 0.00 81 1017.6
20260507025114 11 333 4.8 4.8 0.00 2.26 0.00 80 1016.6
20260507024057 11 333 4.8 4.8 0.00 2.26 0.00 81 1016.6
20260507023034 11 333 4.8 4.8 0.00 2.26 0.00 80 1017.6
20260507022132 11 333 4.8 4.8 0.00 2.26 0.00 81 1017.6
20260507021055 11 333 4.8 4.8 0.00 2.26 0.00 80 1016.8
20260507020055 11 333 4.8 4.8 0.00 2.26 0.00 80 1016.6
20260507015041 11 333 4.8 4.8 0.00 2.26 0.00 80 1016.6
20260507014104 11 330 4.8 4.8 0.00 2.26 0.00 80 1016.6
20260507013046 10 329 4.8 4.8 0.00 2.26 0.00 80 1016.6
20260507012031 10 329 4.8 4.8 0.00 2.26 0.00 80 1016.6
20260507011135 10 337 6.4 6.4 0.00 2.26 0.00 80 1016.6
20260507010057 10 340 6.4 6.4 0.00 2.26 0.00 80 1016.6
20260507005039 11 340 6.4 6.4 0.00 2.26 0.00 80 1016.6
20260507004042 11 340 6.4 6.4 0.00 2.26 0.00 78 1016.6
20260507003109 12 340 6.4 6.4 0.00 2.26 0.00 76 1017.0
20260507002051 12 340 6.4 6.4 0.00 2.26 0.00 78 1017.6
20260507001053 11 340 6.4 6.4 0.00 2.26 0.00 80 1017.3
20260507000119 12 340 6.4 6.4 0.00 2.26 0.00 80 1016.6
20260506235059 12 340 6.4 6.4 0.00 2.26 0.00 80 1016.6
20260506234104 12 340 6.4 6.4 0.00 2.26 0.00 80 1016.6
20260506233027 12 340 6.4 6.4 0.00 2.26 0.00 80 1015.6
20260506232110 12 340 6.4 6.4 0.00 2.26 0.00 80 1017.6
20260506231116 13 340 6.4 6.4 0.00 2.26 0.00 80 1017.6
20260506230035 13 340 6.4 6.4 0.00 2.26 0.00 80 1016.6
20260506225020 13 340 6.4 6.4 0.00 2.26 0.00 79 1016.6
20260506224103 13 340 6.4 6.4 0.00 2.26 0.00 80 1016.6
20260506223046 13 340 6.4 6.4 0.00 2.26 0.00 79 1015.6
20260506222031 13 340 6.4 6.4 0.00 2.26 0.00 79 1015.6
20260506221114 13 340 6.4 6.4 0.00 2.26 0.00 79 1016.6
20260506220058 13 340 6.4 6.4 0.00 2.26 0.00 78 1016.6
20260506215039 12 340 6.4 6.4 0.00 2.26 2.26 78 1016.6
20260506214120 12 340 6.4 6.4 0.00 2.26 2.26 78 1016.6
20260506213056 12 338 8.0 8.0 0.00 2.26 2.26 77 1015.6
20260506212033 12 89 8.0 8.0 0.00 2.26 2.26 77 1015.6
20260506211109 13 89 8.0 8.0 0.00 2.26 2.26 77 1016.6
20260506210046 13 89 8.0 8.0 0.00 2.26 2.26 75 1016.6
20260506205042 13 89 8.0 8.0 0.00 2.26 2.26 76 1016.6
20260506204058 13 89 8.0 8.0 0.00 2.26 2.26 77 1015.8
20260506203034 13 89 8.0 8.0 0.00 2.26 2.26 76 1015.6
20260506202120 13 89 8.0 8.0 0.00 2.26 2.26 77 1015.6
20260506201059 13 89 8.0 8.0 0.00 2.26 2.26 77 1016.3
20260506200044 13 89 8.0 8.0 0.00 2.26 2.26 77 1016.0
20260506195029 14 89 8.0 8.0 0.00 2.26 2.26 77 1015.6
20260506194111 14 89 8.0 8.0 0.00 2.26 2.26 76 1015.0
20260506193056 14 89 8.0 8.0 0.00 2.26 2.26 76 1014.6
20260506192035 14 89 8.0 8.0 0.00 2.26 2.26 76 1014.6
20260506191021 14 89 8.0 8.0 0.00 2.26 2.26 76 1015.1
20260506190104 15 89 8.0 8.0 0.00 2.26 2.26 76 1015.6
20260506185046 15 89 8.0 8.0 0.00 2.26 2.26 77 1015.6
20260506184032 15 89 8.0 8.0 0.00 2.26 2.26 77 1015.3
20260506183115 15 89 8.0 8.0 0.00 2.26 2.26 76 1014.8
20260506182059 15 89 8.0 8.0 0.00 2.26 2.26 75 1015.6
20260506181034 15 89 8.0 8.0 0.00 2.26 2.26 75 1015.6
20260506180120 16 89 8.0 8.0 0.00 2.26 2.26 74 1014.6
20260506175059 16 89 8.0 8.0 0.00 2.26 2.26 75 1014.6
20260506174044 16 89 8.0 8.0 0.00 2.26 2.26 74 1015.6
20260506173026 16 89 8.0 8.0 0.00 2.26 2.26 72 1014.6